Weather in Verkhniy Studenets

Russia / Lipetsk Oblast     52°36′08″N   39°03′18″E
temp.,
°C
wind,
m/s
gust,
m/s
humid.,
%
clouds,
%
prec.,
mm/h
press.,
hPa
HPBL,
m
20 may, fri
fri2000:00+8n11845 0.0 101410
03:00+7nne229082 0.0 101426
06:00+8nnw3892100 0.3 1015373
09:00+11n567345 1.1 10151152
12:00+12n565372 0.2 10161848
15:00+12n6752100 0.2 10161783
18:00+11n4658100 0.0 10161122
21:00+6ne2266100 0.0 101725
21 may, sat
sat2100:00+5ene1161100 0.0 101610
03:00+4se226499 0.0 101618
06:00+5se2470100 0.0 1015124
09:00+9se5757100 0.0 1013695
12:00+11sse4547100 0.0 10111543
15:00+11se565189 0.0 10101428
18:00+11se4559100 0.0 10091307
21:00+6s2381100 0.0 100868
22 may, sun
sun2200:00+7ese2576100 0.0 1006160
03:00+7e3675100 0.0 1005226
06:00+7e3875100 0.1 1002398
09:00+8se4775100 0.3 1002924
12:00+7sse2388100 2.6 1002503
15:00+7w229099 3.8 1003306
18:00+8w1186100 0.3 1003219
21:00+7nnw118643 0.4 100411
23 may, mon
mon2300:00+4nne22875 0.0 100518
03:00+3n22885 0.0 100521
06:00+4n25864 0.0 1006140
09:00+10n45634 0.0 1007935
12:00+11nnw4549100 0.1 10071905
15:00+12nw4646100 0.1 10072020
18:00+12nnw465872 0.0 1007503
21:00+7wnw227224 0.1 100815
24 may, tue
tue2400:00+5wnw337666 0.0 100934
03:00+4nw357769 0.0 101083
06:00+5wnw3873100 0.0 1011198
09:00+10nw6858100 0.0 1011660
12:00+12nw6845100 0.0 10111463
15:00+13nnw794494 0.0 10111729
18:00+13nnw595430 0.0 10121535
21:00+7nnw336839 0.0 101426